AirNav  
 
 453 users online  

X39 Tampa North Aero Park
Tampa, Florida, USA

GOING TO TAMPA?


FAA INFORMATION EFFECTIVE 04 JANUARY 2018

Location

FAA Identifier: X39
Lat/Long: 28-13-16.6000N / 082-22-28.4000W
28-13.276667N / 082-22.473333W
28.2212778 / -82.3745556
(estimated)
Elevation: 68 ft. / 20.7 m (surveyed)
Variation: 02W (1985)
From city: 17 miles NE of TAMPA, FL
Time zone: UTC -5 (UTC -4 during Daylight Saving Time)
Zip code: 33549

Airport Operations

Airport use: Open to the public
Activation date: 05/1970
Control tower: no
ARTCC: MIAMI CENTER
FSS: SAINT PETERSBURG FLIGHT SERVICE STATION
NOTAMs facility: PIE (NOTAM-D service available)
Attendance: 0800-1700
Wind indicator: lighted
Segmented circle: no
Lights: HIRL RY 14/32 PRESET LOW INTST DUSK-2200; TO INCR INTST OR ACTVT AFTER 2200 - CTAF.
Beacon: white-green (lighted land airport)
DUSK-2200. AFTER 2200 ACTVT ROTG BCN - CTAF.

Airport Communications

CTAF/UNICOM: 123.05
WX ASOS at ZPH (12 nm E): 118.975 (813-780-0031)
WX AWOS-3 at VDF (13 nm S): 121.125 (813-630-0924)
WX ASOS at BKV (16 nm N): 134.725 (352-799-5881)
WX ASOS at TPA (17 nm SW): PHONE 813-873-7228
WX AWOS-3 at PCM (17 nm SE): 120.025 (813-764-8259)
WX AWOS-3 at TPF (19 nm S): 118.925 (813-251-6824)

Nearby radio navigation aids

VOR radial/distance  VOR name  Freq  Var
LALr305/23.7LAKELAND VORTAC116.0001E
PIEr046/25.0ST PETERSBURG VORTAC116.4005W

 
NDB name  Hdg/Dist  Freq  Var  ID
COSME049/11.436805WTP - .--.

Airport Services

Fuel available: 100LL JET-A
Parking: hangars and tiedowns
Airframe service: MAJOR
Powerplant service: MAJOR
Bottled oxygen: LOW
Bulk oxygen: NONE

Runway Information

Runway 14/32

Dimensions: 3541 x 50 ft. / 1079 x 15 m
Surface: asphalt, in fair condition
RY 14/32 HAS A 50 FT ASPHALT CENTER WITH A 5 FT TURF EDGE ON EACH SIDE.
Runway edge lights: high intensity
RUNWAY 14  RUNWAY 32
Latitude: 28-13.501833N28-13.051667N
Longitude: 082-22.683167W082-22.262500W
Elevation: 61.6 ft.66.7 ft.
Traffic pattern: rightleft
Displaced threshold: 133 ft.108 ft.
Markings: basic, in fair conditionbasic, in fair condition
Touchdown point: yes, no lightsyes, no lights
Obstructions: 4 ft. fence, 300 ft. from runway
RY 14 APCH RATIO 20:1 TO DSPLCD THLD DUE TO 27 FT TREE 404 FT FROM RY END 75 FT L OF CNTRLN.
20 ft. road, 480 ft. from runway, 14:1 slope to clear
RY 32 APPROACH SLOPE 22:1 DUE TO 53 FT POLE 1040 FT FROM RY END 40 FT R OF CNTRLN.

Airport Ownership and Management from official FAA records

Ownership: Privately-owned
Owner: HELICOPTER. STRUCTURAL & MAINT. INC
4241 BIRDSONG BLVD.
LUTZ, FL 33559
Phone 813-973-3703
CONTACT PERSON: CHARLES BRAMMER
Manager: ANGELA BRAMMER
TAMPA NORTH AERO PARK, 4241 BIRD SONG BOULEVARD
LUTZ, FL 33559
Phone 813-973-3703
FBO 813-973-3703.

Airport Operational Statistics

Aircraft based on the field: 38
Single engine airplanes: 35
Multi engine airplanes: 2
Helicopters: 1
    
Aircraft operations: avg 30/day *
91% local general aviation
9% transient general aviation
* for 12-month period ending 02 November 2015

Additional Remarks

ACFT, TREES & BLDG IN TRANSITIONAL SURFACE, BOTH SIDES OF RY 14/32.
ACFT PARKED 125 FT OF RY CNTRLN BOTH SIDES FIRST THIRD OF RY 32..

Instrument Procedures

There are no published instrument procedures at X39.

Some nearby airports with instrument procedures:

KZPH - Zephyrhills Municipal Airport (12 nm E)
KVDF - Tampa Executive Airport (13 nm S)
KBKV - Brooksville-Tampa Bay Regional Airport (16 nm N)
KTPA - Tampa International Airport (17 nm SW)
KPCM - Plant City Airport (17 nm SE)
KTPF - Peter O Knight Airport (19 nm S)
 
Loc | Ops | Rwys | IFR | FBO | Links
Com | Nav | Svcs | Stats | Notes


 
Area around X39 (Tampa North Aero Park)
 
Road maps at: MapQuest Bing Google
 
Aerial photo
WARNING: Photo may not be current or correct
Aerial photo of X39 (Tampa North Aero Park)
Photo by 601PH
Photo taken 20-Mar-2011
looking north.

Do you have a better or more recent aerial photo of Tampa North Aero Park that you would like to share? If so, please send us your photo.

 
Sectional chart

 
Airport distance calculator
Flying to Tampa North Aero Park? Find the distance to fly.

From to X39

Sunrise and sunset
Times for 23-Jan-2018
 Local
(UTC-5)
 Zulu
(UTC)
Morning civil twilight06:5711:57
Sunrise07:2212:22
Sunset18:0123:01
Evening civil twilight18:2623:26

Current date and time
Zulu (UTC)  23-Jan-2018 06:21:12
Local (UTC-5)  23-Jan-2018 01:21:12
 
METAR
KZPH 
12nm E 
230535Z AUTO 00000KT 7SM RA SCT031 BKN050 OVC090 19/18 A3007 RMK AO2 P0002 T01910181
KVDF 
12nm S 
230555Z AUTO 00000KT 7SM SCT019 BKN060 OVC120 18/18 A3005 RMK AO2
KBKV 
15nm N 
230553Z AUTO 00000KT 10SM -RA FEW029 BKN039 OVC060 18/18 A3005 RMK AO2 SLP173 P0015 60053 T01780178 10222 20178 58011
KPCM 
17nm SE 
230555Z AUTO 18004KT 10SM SCT032 BKN065 BKN080 20/18 A3007 RMK AO2
KTPA 
17nm SW 
230553Z 04003KT 9SM FEW005 SCT035 OVC060 20/18 A3005 RMK AO2 SLP174 60008 T02000183 10217 20194 58005
KTPF 
19nm S 
230555Z AUTO 07003KT 10SM BKN060 OVC070 A3004 RMK AO2
TAF
KTPA 
17nm SW 
230538Z 2306/2412 VRB03KT 6SM BR VCSH SCT035 OVC070 FM230900 16005KT 5SM SHRA BR SCT020 BKN035 OVC060 TEMPO 2309/2313 3SM SHRA BR BKN020 FM231400 19006KT 6SM -SHRA BR SCT015 BKN025 OVC050 FM231800 25009KT P6SM VCSH SCT012 BKN020 OVC040 FM232300 33007KT P6SM SCT020 SCT050 BKN250 FM240600 01007KT P6SM BKN250
NOTAMs
Click for the latest NOTAMs
NOTAMs are issued by the DoD/FAA and will open in a separate window not controlled by AirNav.

 

 
 

FBO, Fuel Providers, and Aircraft Ground Support

  
 Business Name 
 
 Contact 
 
 Services / Description 
 
Fuel Prices
 
Comments
  
Tampa North Flight Center 813-973-3703
[web site]
[email]
Airport management, Aviation fuel, Aircraft parking (ramp or tiedown), Hangar leasing / sales, Pilot school (FAR Part 141), Flight training, ...

More info about Tampa North Flight Center
Phillips 66
100LL
FS $4.45 
 Updated 17-Jan-2018
 
   4 read write
FS=Full service
Update Fuel Prices
 

Would you like to see your business listed on this page?

 If your business provides an interesting product or service to pilots, flight crews, aircraft, or users of the Tampa North Aero Park, you should consider listing it here.  To start the listing process, click on the button below
 
Add a business
 

Other Pages about Tampa North Aero Park

Update a link
 
Copyright © AirNav, LLC. All rights reserved. Privacy Policy  Contact